Weather in Moneglia

Italy     44°14′34″N   9°29′16″E
temp.,
°C
wind,
m/s
gust,
m/s
humid.,
%
clouds,
%
prec.,
mm/h
press.,
hPa
HPBL,
m
12 may, wed
wed1223:00+11ene349599 0.5 1010107
02:00+10ene239573 1.3 100989
05:00+11ene339219 0.1 100857
08:00+13ne128814 0.1 1009130
11:00+16wsw2269100 0.1 1009818
14:00+16ssw327246 0.4 1009907
17:00+13s458373 0.4 1010642
20:00+12ssw368973 1.2 1010370
13 may, thu
thu1323:00+11s239398 1.4 1010235
02:00+11sse2391100 2.5 1008211
05:00+11e239184 0.9 1007148
08:00+12ene33898 0.9 1006239
11:00+16ese346721 0.0 1006963
14:00+15sse448289 1.1 1005866
17:00+12sse358547 0.9 1006721
20:00+12ene478538 1.1 1005550
14 may, fri
fri1423:00+9ne449136 0.0 100689
02:00+9nne228733 0.0 100642
05:00+9nne228694 0.0 100735
08:00+12e127634 0.1 1008136
11:00+15se457288 0.6 10081105
14:00+13sse4688100 2.6 1009760
17:00+13s348124 2.8 1009774
20:00+11sse22908 5.0 100999
15 may, sat
sat1523:00+9ene32934 0.3 101093
02:00+8ne32901 0.3 100953
05:00+8nne328720 0.0 100947
08:00+11n11800 0.0 101093
11:00+14sw2262100 0.0 1010781
14:00+15s3364100 0.0 1010916
17:00+15sse3365100 0.1 10091094
20:00+12se348584 0.1 1010209
16 may, sun
sun1623:00+12e239193 0.1 1010218
02:00+10ne339272 0.1 101097
05:00+9nne3388100 0.0 101051
08:00+13ne1271100 0.0 1011110
11:00+16ssw326214 0.0 1011951
14:00+17s326556 0.0 1012918
17:00+17sse2267100 0.0 1011799
20:00+14se1288100 0.0 101275